Location: Multiple Mirror Telescope
(31.6889°N, 110.8853°W)
Time: 03:40:22
(UTC-07:00)

Tiangong - Visible Passes

Search period start: 30 May 2024 00:00
Search period end: 09 June 2024 00:00
Orbit: 369 x 373 km, 41.5° (Epoch: 29 May)

Date Brightness Start Highest point End Pass type
(mag) Time Alt. Az. Time Alt. Az. Time Alt. Az.
30 May 0.9 02:40:49 13° N 02:40:51 13° N 02:42:26 10° NNE visible
30 May 0.3 04:15:33 10° NW 04:18:05 23° NNE 04:20:37 10° ENE visible
31 May 0.7 03:11:53 10° NNW 03:13:52 17° NNE 03:15:57 10° NE visible
31 May -1.6 04:47:46 10° NW 04:50:48 61° NNE 04:53:50 10° ESE visible
01 Jun 1.5 02:11:15 10° NE 02:11:15 10° NE 02:11:16 10° NE visible
01 Jun -0.3 03:43:54 10° NW 03:46:42 31° NNE 03:49:29 10° E visible
02 Jun 0.6 02:42:58 19° NNE 02:42:58 19° NNE 02:44:51 10° ENE visible
02 Jun -2.4 04:16:09 10° WNW 04:19:13 78° SSW 04:22:16 10° SE visible
02 Jun 0.4 20:44:47 10° SSW 20:44:50 10° SSW 20:44:50 10° SSW visible
03 Jun -1.2 03:15:20 46° NE 03:15:20 46° NE 03:18:04 10° ESE visible
03 Jun -0.7 04:49:12 10° W 04:51:26 18° SW 04:53:39 10° S visible
03 Jun -1.1 21:16:28 10° WSW 21:18:30 38° WSW 21:18:30 38° WSW visible
04 Jun -1.1 03:48:30 29° SSE 03:48:30 29° SSE 03:50:21 10° SE visible
04 Jun -1.8 20:12:31 10° SW 20:15:24 40° SE 20:18:19 10° ENE visible
04 Jun 0.1 21:49:18 10° W 21:51:25 25° NW 21:51:25 25° NW visible
05 Jun -1.3 20:44:40 10° WSW 20:47:40 49° NNW 20:50:40 10° NE visible
05 Jun 1.2 22:22:40 10° NW 22:23:29 13° NW 22:23:29 13° NW visible
06 Jun 0.4 21:17:43 10° WNW 21:20:08 21° NNW 21:22:34 10° NE visible
07 Jun -0.3 20:12:51 10° W 20:15:40 32° NNW 20:18:30 10° NE visible
07 Jun 0.8 21:51:03 10° NW 21:52:47 14° N 21:53:56 12° NNE visible
08 Jun 0.7 20:46:02 10° NW 20:48:09 17° NNW 20:50:17 10° NNE visible
08 Jun 1.2 22:23:45 10° NNW 22:24:36 13° NNW 22:24:36 13° NNW visible
